Overview Statistics Trail Chart Weather Telemetry Raw packets
 

This is the latest recevied weather packets stored in our database for station/object ES0THZ-13. If no packets are shown the sender has not sent any weather packets the latest 10 day(s).

<< 19 20 21 22 23 24 25 >>
Time Temp. Humidity Pressure Rain* Wind** Luminosity Snow
1788084360 22.22° C 82% 1003.8 hPa - - - -
1788083286 23.33° C 82% 1003.4 hPa - - - -
1788082256 22.78° C 83% 1004.2 hPa - - - -
1788081176 22.22° C 85% 1003.8 hPa - - - -
1788080026 21.67° C 86% 1004.5 hPa - - - -
1788078871 20° C 88% 1003.5 hPa - - - -
1788077766 19.44° C 88% 1003.4 hPa - - - -
1788076681 19.44° C 88% 1003.6 hPa - - - -
1788075596 18.89° C 87% 1003.6 hPa - - - -
1788074507 18.33° C 88% 1004.5 hPa - - - -
1788073400 17.78° C 88% 1003.8 hPa - - - -
1788072367 17.22° C 88% 1002.6 hPa - - - -
1788071336 18.89° C 88% 1004 hPa - - - -
1788070251 18.89° C 87% 1003.1 hPa - - - -
1788069231 18.89° C 88% 1003.2 hPa - - - -
1788068066 17.22° C 89% 1003.2 hPa - - - -
1788067020 17.22° C 88% 1002.3 hPa - - - -
1788065940 18.33° C 87% 1004.5 hPa - - - -
1788064846 16.67° C 89% 1002.7 hPa - - - -
1788063856 16.67° C 89% 1002.9 hPa - - - -
1788062706 16.67° C 89% 1002.4 hPa - - - -
1788061536 16.67° C 89% 1003.3 hPa - - - -
1788060497 16.67° C 89% 1003.3 hPa - - - -
1788059416 16.67° C 89% 1003.2 hPa - - - -
1788058280 16.67° C 88% 1003.4 hPa - - - -

* Rain since midnight (hover to see other rain measurements)
** Current wind speed in m/s (hover to see current wind gust speed)